Location: Baia Mare
(47.6567°N, 23.5850°E)
Time: 19:41:54
(UTC+03:00)

Envisat - Pass Details

Date: 30 January 2022
Orbit: 764 x 765 km, 98.2° (Epoch: 19 May)

Event Time Altitude Azimuth Distance (km) Brightness Sun altitude
Rises 07:06:42 0° 360° (N) 3,242 6.1 -8.4°
Reaches altitude 10° 07:09:54 10° 339° (NNW) 2,312 5.1 -7.9°
Maximum altitude 07:12:48 16° 304° (WNW) 1,948 4.5 -7.5°
Drops below altitude 10° 07:15:42 10° 268° (W) 2,304 4.9 -7.0°
Sets 07:18:53 0° 247° (WSW) 3,226 5.8 -6.5°
